STARLINK-11261 [DTC]

Last updated on Sat Sep 28 2024 00:02:03 GMT+0000 (Coordinated Universal Time)

1 60724U 24152E 24271.11052515 .00001297 00000+0 15567-4 0 9995 2 60724 53.1614 202.1058 0001121 97.7609 262.3536 15.69707639 5816

Satellite not in orbit

STARLINK-11261 [DTC]